Regional Weather Roundup
Issued by NWS

Home | Current Version | Previous Version | Text Only | Print | Product List | Glossary Off
Versions: 1 2 3 4 5 6 7 8 9 10 11 12 13 14 15 16 17 18 19 20 21 22 23 24 25 26 27 28 29 30 31 32 33 34 35 36 37 38 39 40 41 42 43 44 45 46 47 48 49 50

000
ASUS45 KPSR 200810
RWRAZ

ARIZONA REGIONAL HOURLY WEATHER ROUNDUP
NATIONAL WEATHER SERVICE PHOENIX AZ
100 AM MST WED AUG 20 2014

NOTE: FAIR INDICATES FEW OR NO CLOUDS BELOW 12,000 FEET WITH NO
SIGNIFICANT WEATHER AND/OR OBSTRUCTIONS TO VISIBILITY.

AZZ001>003-036-200900-
NORTHWEST ARIZONA

CITY           SKY/WX    TMP DP  RH WIND       PRES   REMARKS
BULLHEAD CITY  CLEAR     77  66  69 E5        29.78R
KINGMAN        CLEAR     67  56  67 SE18      29.94R
$$

AZZ004>008-015-016-018-200900-
NORTH CENTRAL ARIZONA

CITY           SKY/WX    TMP DP  RH WIND       PRES   REMARKS
GRAND CANYON     N/A    N/A N/A N/A MISG        N/A
WILLIAMS       CLEAR     55  48  76 S8        30.22S
PRESCOTT       CLEAR     55  52  89 CALM      30.08S
FLAGSTAFF      MOCLDY    52  48  86 SW3       30.19S
PAYSON         MOCLDY    61  59  94 CALM      30.12R
PAGE           CLEAR     67  61  81 CALM      29.98S
$$

AZZ009>014-017-200900-
NORTHEAST ARIZONA

CITY           SKY/WX    TMP DP  RH WIND       PRES   REMARKS
WINSLOW        CLOUDY    62  57  83 N3        30.05R
SAINT JOHNS    PTCLDY    60  51  72 SW5       30.09F
WINDOW ROCK    MOCLDY    57  51  80 CALM      30.14F
SHOW LOW       CLEAR     54  48  82 S12       30.17S
$$

AZZ023-200900-
GREATER PHOENIX AREA

CITY           SKY/WX    TMP DP  RH WIND       PRES   REMARKS
PHOENIX        PTCLDY    79  64  60 N3        29.84S
BUCKEYE          N/A     75  68  78 NE6       29.84S
LUKE AFB       NOT AVBL
DEER VALLEY    PTCLDY    75  65  70 CALM      29.86S
SCOTTSDALE     MOCLDY    74  67  78 NW3       29.88R
MESA-GATEWAY   PTCLDY    79  64  61 NE3       29.88R
$$

AZZ027-028-200900-
SOUTHWEST MARICOPA COUNTY AND PINAL COUNTY

CITY           SKY/WX    TMP DP  RH WIND       PRES   REMARKS
CASA GRANDE    CLEAR     75  64  69 E7        29.86F
$$

AZZ503-504-507>509-200900-
SOUTHEAST ARIZONA

CITY           SKY/WX    TMP DP  RH WIND       PRES   REMARKS
TUCSON         CLEAR     73  65  75 E5        29.97F
DAVIS-MONTHAN  CLEAR     71  64  79 E6        29.96S
NOGALES        PTCLDY    65  60  84 SE3       30.06S
SIERRA VISTA   PTCLDY    66  63  88 NE5       30.08F
DOUGLAS        CLOUDY    64  62  93 SE7       30.05F
SAFFORD        MOCLDY    66  64  93 W6        29.99R
$$

AZZ020-021-025-026-031-200900-
SOUTHWEST ARIZONA

CITY           SKY/WX    TMP DP  RH WIND       PRES   REMARKS
YUMA           CLEAR     87  67  51 S5        29.76R
$$

CAZ031-033-041-043-047-048-061-200900-
SOUTHERN CALIFORNIA

CITY           SKY/WX    TMP DP  RH WIND       PRES   REMARKS
DOWNTOWN L.A.  CLOUDY    71  60  68 CALM      29.88R
L.A. AIRPORT   CLOUDY    69  60  73 SW7       29.89R
SAN DIEGO      CLOUDY    69  59  70 W3        29.91S
BURBANK        CLOUDY    68  59  73 S6        29.89R
ONTARIO        PTCLDY    66  60  81 W5        29.90S
RIVERSIDE      CLEAR     66  59  78 W3        29.91R
PALM SPRINGS   PTCLDY    83  49  30 CALM      29.78R
EL CENTRO NAS  PTCLDY    87  29  12 W20       29.72F
IMPERIAL       PTCLDY    84  35  17 NW12      29.72S
BLYTHE         PTCLDY    84  52  33 S12       29.75R
NEEDLES        CLEAR     85  59  41 SE6       29.77R
$$

NVZ020-UTZ003-200900-
SOUTHERN NEVADA-UTAH

CITY           SKY/WX    TMP DP  RH WIND       PRES   REMARKS
LAS VEGAS      PTCLDY    80  53  39 SE3       29.80R
SALT LAKE CITY LGT RAIN  67  60  78 SE8       29.89S
$$

NMZ009-TXZ055-200900-
NEW MEXICO-WEST TEXAS

CITY           SKY/WX    TMP DP  RH WIND       PRES   REMARKS
ALBUQUERQUE    CLOUDY    69  51  52 SE5       30.04F
EL PASO        PTCLDY    71  58  63 SW14      29.95S
$$


........................KEY........................
SKY/WX - SKY CONDITION/WEATHER
TMP    - TEMPERATURE IN FAHRENHEIT
DP     - DEW POINT IN FAHRENHEIT
RH     - RELATIVE HUMIDITY IN PERCENT
WIND   - DIRECTION AND SPEED IN MILES PER HOUR (MPH)
VRB    - VARIABLE WIND DIRECTION
PRES   - MEAN SEA LEVEL PRESSURE IN INCHES OF MERCURY
         F - FALLING PRESSURE   R - RISING PRESSURE
         S - STEADY PRESSURE
VSB    - VISIBILITY IN MILES
HX     - HEAT INDEX IN FAHRENHEIT
WCI    - WIND CHILL INDEX IN FAHRENHEIT
TC     - TEMPERATURE IN CELSIUS WHICH IS ALSO KNOWN AS
         TEMPERATURE IN CENTIGRADE
AFB    - AIR FORCE BASE
         LUKE AFB IS LUKE AIR FORCE BASE
         DAVIS-MONTHAN IS DAVIS-MONTHAN AIR FORCE BASE
NAS    - NAVAL AIR STATION
         EL CENTRO NAS IS EL CENTRO NAVAL AIR STATION
N/A    - NOT AVAILABLE


USA.gov is the U.S. government's official web portal to all federal, state and local government web resources and services.